Location: Krakow
(50.0830°N, 19.9170°E)
Time: 06:57:52
(UTC+02:00)

Tiros 1 despin weight - Pass Details

Date: 24 March 2026
Orbit: 555 x 592 km, 48.2° (Epoch: 18 April)

Event Time Altitude Azimuth Distance (km) Brightness Sun altitude
Rises 02:44:11 0° 245° (WSW) 2,819 - -26.1°
Reaches altitude 10° 02:46:30 10° 241° (WSW) 1,919 - -25.8°
Maximum altitude 02:50:48 54° 165° (SSE) 720 - -25.3°
Exits shadow 02:51:39 46° 123° (ESE) 802 ? -25.2°
Drops below altitude 10° 02:55:05 10° 88° (E) 1,914 ? -24.7°
Sets 02:57:23 0° 83° (E) 2,811 ? -24.4°
